Location: Recife
(8.0585°S, 34.8848°W)
Time: 01:37:08
(UTC-03:00)

Courier 1B Rocket - Pass Details

Date: 16 April 2026
Orbit: 920 x 1201 km, 28.2° (Epoch: 14 May)

Event Time Altitude Azimuth Distance (km) Brightness Sun altitude
Exits shadow 02:02:28 10° 73° (ENE) 2,627 7.7 -49.7°
Drops below altitude 10° 02:02:35 10° 74° (ENE) 2,653 7.8 -49.7°
Sets 02:05:59 0° 91° (E) 3,612 8.6 -48.9°
